Location: Châteauvieux
(47.2310°N, 1.3828°E)
Time: 23:34:11
(UTC+00:00)

Cosmos 2058 Rocket - Pass Details

Date: 15 May 2026
Orbit: 604 x 632 km, 82.5° (Epoch: 11 June)

Event Time Altitude Azimuth Distance (km) Brightness Sun altitude
Exits shadow 22:31:00 58° 197° (SSW) 714 3.0 -21.3°
Maximum altitude 22:31:51 85° 278° (W) 616 2.9 -21.4°
Drops below altitude 10° 22:36:12 10° 8° (N) 1,964 6.5 -21.6°
Sets 22:38:25 0° 9° (N) 2,872 7.5 -21.7°
